owner,sensor,date,latitude,longitude,air_temperature,qcFlag 
DISL,ioos:station:DISL:MHPA:1,2017-09-01T00:00:00Z,30.6671,-87.9365,28.66,1111122 
DISL,ioos:station:DISL:MHPA:1,2017-09-01T00:30:00Z,30.6671,-87.9365,28.49,1111122 
DISL,ioos:station:DISL:MHPA:1,2017-09-01T01:00:00Z,30.6671,-87.9365,28.32,1111122 
DISL,ioos:station:DISL:MHPA:1,2017-09-01T01:30:00Z,30.6671,-87.9365,28.05,1111122 
DISL,ioos:station:DISL:MHPA:1,2017-09-01T02:00:00Z,30.6671,-87.9365,27.98,1111122 
DISL,ioos:station:DISL:MHPA:1,2017-09-01T02:30:00Z,30.6671,-87.9365,27.78,1111122 
DISL,ioos:station:DISL:MHPA:1,2017-09-01T03:00:00Z,30.6671,-87.9365,27.85,1111122 
DISL,ioos:station:DISL:MHPA:1,2017-09-01T03:30:00Z,30.6671,-87.9365,28.02,1111122 
DISL,ioos:station:DISL:MHPA:1,2017-09-01T04:00:00Z,30.6671,-87.9365,27.75,1111122 
DISL,ioos:station:DISL:MHPA:1,2017-09-01T04:30:00Z,30.6671,-87.9365,27.68,1111122 
DISL,ioos:station:DISL:MHPA:1,2017-09-01T05:00:00Z,30.6671,-87.9365,27.44,1111122 
DISL,ioos:station:DISL:MHPA:1,2017-09-01T05:30:00Z,30.6671,-87.9365,27.32,1111122 
DISL,ioos:station:DISL:MHPA:1,2017-09-01T06:00:00Z,30.6671,-87.9365,27.18,1111122 
DISL,ioos:station:DISL:MHPA:1,2017-09-01T06:30:00Z,30.6671,-87.9365,27.05,1111122 
DISL,ioos:station:DISL:MHPA:1,2017-09-01T07:00:00Z,30.6671,-87.9365,26.78,1111122 
DISL,ioos:station:DISL:MHPA:1,2017-09-01T07:30:00Z,30.6671,-87.9365,26.55,1111122 
DISL,ioos:station:DISL:MHPA:1,2017-09-01T08:00:00Z,30.6671,-87.9365,26.18,1111122 
DISL,ioos:station:DISL:MHPA:1,2017-09-01T08:30:00Z,30.6671,-87.9365,26.25,1111122 
DISL,ioos:station:DISL:MHPA:1,2017-09-01T09:00:00Z,30.6671,-87.9365,26.05,1111122 
DISL,ioos:station:DISL:MHPA:1,2017-09-01T09:30:00Z,30.6671,-87.9365,25.81,1111122 
DISL,ioos:station:DISL:MHPA:1,2017-09-01T10:00:00Z,30.6671,-87.9365,25.44,1111122 
DISL,ioos:station:DISL:MHPA:1,2017-09-01T10:30:00Z,30.6671,-87.9365,25.31,1111122 
DISL,ioos:station:DISL:MHPA:1,2017-09-01T11:00:00Z,30.6671,-87.9365,25.14,1111122 
DISL,ioos:station:DISL:MHPA:1,2017-09-01T11:30:00Z,30.6671,-87.9365,25.07,1111122 
DISL,ioos:station:DISL:MHPA:1,2017-09-01T12:00:00Z,30.6671,-87.9365,24.77,1111122 
DISL,ioos:station:DISL:MHPA:1,2017-09-01T12:30:00Z,30.6671,-87.9365,24.63,1111122 
DISL,ioos:station:DISL:MHPA:1,2017-09-01T13:00:00Z,30.6671,-87.9365,24.87,1111122 
DISL,ioos:station:DISL:MHPA:1,2017-09-01T13:30:00Z,30.6671,-87.9365,25.14,1111122 
DISL,ioos:station:DISL:MHPA:1,2017-09-01T14:00:00Z,30.6671,-87.9365,25.18,1111122 
DISL,ioos:station:DISL:MHPA:1,2017-09-01T14:30:00Z,30.6671,-87.9365,25.38,1111122 
DISL,ioos:station:DISL:MHPA:1,2017-09-01T15:00:00Z,30.6671,-87.9365,25.92,1111122 
DISL,ioos:station:DISL:MHPA:1,2017-09-01T15:30:00Z,30.6671,-87.9365,25.99,1111122 
DISL,ioos:station:DISL:MHPA:1,2017-09-01T16:00:00Z,30.6671,-87.9365,26.26,1111122 
DISL,ioos:station:DISL:MHPA:1,2017-09-01T16:30:00Z,30.6671,-87.9365,26.29,1111122 
DISL,ioos:station:DISL:MHPA:1,2017-09-01T17:00:00Z,30.6671,-87.9365,26.89,1111122 
DISL,ioos:station:DISL:MHPA:1,2017-09-01T17:30:00Z,30.6671,-87.9365,27.18,1111122 
DISL,ioos:station:DISL:MHPA:1,2017-09-01T18:00:00Z,30.6671,-87.9365,27.66,1111122 
DISL,ioos:station:DISL:MHPA:1,2017-09-01T18:30:00Z,30.6671,-87.9365,28.13,1111122 
DISL,ioos:station:DISL:MHPA:1,2017-09-01T19:00:00Z,30.6671,-87.9365,28.47,1111122 
DISL,ioos:station:DISL:MHPA:1,2017-09-01T19:30:00Z,30.6671,-87.9365,28.26,1111122 
DISL,ioos:station:DISL:MHPA:1,2017-09-01T20:00:00Z,30.6671,-87.9365,28.23,1111122 
DISL,ioos:station:DISL:MHPA:1,2017-09-01T20:30:00Z,30.6671,-87.9365,28.43,1111122 
DISL,ioos:station:DISL:MHPA:1,2017-09-01T21:00:00Z,30.6671,-87.9365,28.6,1111122 
DISL,ioos:station:DISL:MHPA:1,2017-09-01T21:30:00Z,30.6671,-87.9365,28.6,1111122 
DISL,ioos:station:DISL:MHPA:1,2017-09-01T22:00:00Z,30.6671,-87.9365,28.87,1111122 
DISL,ioos:station:DISL:MHPA:1,2017-09-01T22:30:00Z,30.6671,-87.9365,28.47,1111122 
DISL,ioos:station:DISL:MHPA:1,2017-09-01T23:00:00Z,30.6671,-87.9365,28.63,1111122 
DISL,ioos:station:DISL:MHPA:1,2017-09-01T23:30:00Z,30.6671,-87.9365,28.41,1111122 
DISL,ioos:station:DISL:MHPA:1,2017-09-02T00:00:00Z,30.6671,-87.9365,28.18,1111122 
DISL,ioos:station:DISL:MHPA:1,2017-09-02T00:30:00Z,30.6671,-87.9365,28.12,1111122 
DISL,ioos:station:DISL:MHPA:1,2017-09-02T01:00:00Z,30.6671,-87.9365,27.14,1111122 
DISL,ioos:station:DISL:MHPA:1,2017-09-02T01:30:00Z,30.6671,-87.9365,26.58,1111122 
DISL,ioos:station:DISL:MHPA:1,2017-09-02T02:00:00Z,30.6671,-87.9365,27.97,1111122 
DISL,ioos:station:DISL:MHPA:1,2017-09-02T02:30:00Z,30.6671,-87.9365,27.77,1111122 
DISL,ioos:station:DISL:MHPA:1,2017-09-02T03:00:00Z,30.6671,-87.9365,27.53,1111122 
DISL,ioos:station:DISL:MHPA:1,2017-09-02T03:30:00Z,30.6671,-87.9365,27.5,1111122 
DISL,ioos:station:DISL:MHPA:1,2017-09-02T04:00:00Z,30.6671,-87.9365,27.3,1111122 
DISL,ioos:station:DISL:MHPA:1,2017-09-02T04:30:00Z,30.6671,-87.9365,26.72,1111122 
DISL,ioos:station:DISL:MHPA:1,2017-09-02T05:00:00Z,30.6671,-87.9365,26.28,1111122 
DISL,ioos:station:DISL:MHPA:1,2017-09-02T05:30:00Z,30.6671,-87.9365,27.26,1111122 
DISL,ioos:station:DISL:MHPA:1,2017-09-02T06:00:00Z,30.6671,-87.9365,26.93,1111122 
DISL,ioos:station:DISL:MHPA:1,2017-09-02T06:30:00Z,30.6671,-87.9365,26.86,1111122 
DISL,ioos:station:DISL:MHPA:1,2017-09-02T07:00:00Z,30.6671,-87.9365,25.74,1111122 
DISL,ioos:station:DISL:MHPA:1,2017-09-02T07:30:00Z,30.6671,-87.9365,25.27,1111122 
DISL,ioos:station:DISL:MHPA:1,2017-09-02T08:00:00Z,30.6671,-87.9365,24.87,1111122 
DISL,ioos:station:DISL:MHPA:1,2017-09-02T08:30:00Z,30.6671,-87.9365,24.63,1111122 
DISL,ioos:station:DISL:MHPA:1,2017-09-02T09:00:00Z,30.6671,-87.9365,24.53,1111122 
DISL,ioos:station:DISL:MHPA:1,2017-09-02T09:30:00Z,30.6671,-87.9365,24.2,1111122 
DISL,ioos:station:DISL:MHPA:1,2017-09-02T10:00:00Z,30.6671,-87.9365,23.9,1111122 
DISL,ioos:station:DISL:MHPA:1,2017-09-02T10:30:00Z,30.6671,-87.9365,23.77,1111122 
DISL,ioos:station:DISL:MHPA:1,2017-09-02T11:00:00Z,30.6671,-87.9365,23.57,1111122 
DISL,ioos:station:DISL:MHPA:1,2017-09-02T11:30:00Z,30.6671,-87.9365,23.47,1111122 
DISL,ioos:station:DISL:MHPA:1,2017-09-02T12:00:00Z,30.6671,-87.9365,23.03,1111122 
DISL,ioos:station:DISL:MHPA:1,2017-09-02T12:30:00Z,30.6671,-87.9365,23.67,1111122 
DISL,ioos:station:DISL:MHPA:1,2017-09-02T13:00:00Z,30.6671,-87.9365,24.03,1111122 
DISL,ioos:station:DISL:MHPA:1,2017-09-02T13:30:00Z,30.6671,-87.9365,24.7,1111122 
DISL,ioos:station:DISL:MHPA:1,2017-09-02T14:00:00Z,30.6671,-87.9365,24.83,1111122 
DISL,ioos:station:DISL:MHPA:1,2017-09-02T14:30:00Z,30.6671,-87.9365,25.96,1111122 
DISL,ioos:station:DISL:MHPA:1,2017-09-02T15:00:00Z,30.6671,-87.9365,27.31,1111122 
DISL,ioos:station:DISL:MHPA:1,2017-09-02T15:30:00Z,30.6671,-87.9365,28.34,1111122 
DISL,ioos:station:DISL:MHPA:1,2017-09-02T16:00:00Z,30.6671,-87.9365,28.63,1111122 
DISL,ioos:station:DISL:MHPA:1,2017-09-02T16:30:00Z,30.6671,-87.9365,29.11,1111122 
DISL,ioos:station:DISL:MHPA:1,2017-09-02T17:00:00Z,30.6671,-87.9365,29.54,1111122 
DISL,ioos:station:DISL:MHPA:1,2017-09-02T17:30:00Z,30.6671,-87.9365,28.82,1111122 
DISL,ioos:station:DISL:MHPA:1,2017-09-02T18:00:00Z,30.6671,-87.9365,29.19,1111122 
DISL,ioos:station:DISL:MHPA:1,2017-09-02T18:30:00Z,30.6671,-87.9365,29.49,1111122 
DISL,ioos:station:DISL:MHPA:1,2017-09-02T19:00:00Z,30.6671,-87.9365,29.59,1111122 
DISL,ioos:station:DISL:MHPA:1,2017-09-02T19:30:00Z,30.6671,-87.9365,27.64,1111122 
DISL,ioos:station:DISL:MHPA:1,2017-09-02T20:00:00Z,30.6671,-87.9365,27.93,1111122 
DISL,ioos:station:DISL:MHPA:1,2017-09-02T20:30:00Z,30.6671,-87.9365,28.26,1111122 
DISL,ioos:station:DISL:MHPA:1,2017-09-02T21:00:00Z,30.6671,-87.9365,27.69,1111122 
DISL,ioos:station:DISL:MHPA:1,2017-09-02T21:30:00Z,30.6671,-87.9365,28.03,1111122 
DISL,ioos:station:DISL:MHPA:1,2017-09-02T22:00:00Z,30.6671,-87.9365,28.33,1111122 
DISL,ioos:station:DISL:MHPA:1,2017-09-02T22:30:00Z,30.6671,-87.9365,28.43,1111122 
DISL,ioos:station:DISL:MHPA:1,2017-09-02T23:00:00Z,30.6671,-87.9365,28.53,1111122 
DISL,ioos:station:DISL:MHPA:1,2017-09-02T23:30:00Z,30.6671,-87.9365,28.47,1111122 
DISL,ioos:station:DISL:MHPA:1,2017-09-03T00:00:00Z,30.6671,-87.9365,27.85,1111122 
DISL,ioos:station:DISL:MHPA:1,2017-09-03T00:30:00Z,30.6671,-87.9365,27.38,1111122 
DISL,ioos:station:DISL:MHPA:1,2017-09-03T01:00:00Z,30.6671,-87.9365,27.34,1111122 
DISL,ioos:station:DISL:MHPA:1,2017-09-03T01:30:00Z,30.6671,-87.9365,27.04,1111122 
DISL,ioos:station:DISL:MHPA:1,2017-09-03T02:00:00Z,30.6671,-87.9365,27.14,1111122 
DISL,ioos:station:DISL:MHPA:1,2017-09-03T02:30:00Z,30.6671,-87.9365,26.4,1111122 
DISL,ioos:station:DISL:MHPA:1,2017-09-03T03:00:00Z,30.6671,-87.9365,26.18,1111122 
DISL,ioos:station:DISL:MHPA:1,2017-09-03T03:30:00Z,30.6671,-87.9365,26.01,1111122 
DISL,ioos:station:DISL:MHPA:1,2017-09-03T04:00:00Z,30.6671,-87.9365,25.44,1111122 
DISL,ioos:station:DISL:MHPA:1,2017-09-03T04:30:00Z,30.6671,-87.9365,25.54,1111122 
DISL,ioos:station:DISL:MHPA:1,2017-09-03T05:00:00Z,30.6671,-87.9365,25.34,1111122 
DISL,ioos:station:DISL:MHPA:1,2017-09-03T05:30:00Z,30.6671,-87.9365,25.44,1111122 
DISL,ioos:station:DISL:MHPA:1,2017-09-03T06:00:00Z,30.6671,-87.9365,25.51,1111122 
DISL,ioos:station:DISL:MHPA:1,2017-09-03T06:30:00Z,30.6671,-87.9365,25.54,1111122 
DISL,ioos:station:DISL:MHPA:1,2017-09-03T07:00:00Z,30.6671,-87.9365,25.44,1111122 
DISL,ioos:station:DISL:MHPA:1,2017-09-03T07:30:00Z,30.6671,-87.9365,25.14,1111122 
DISL,ioos:station:DISL:MHPA:1,2017-09-03T08:00:00Z,30.6671,-87.9365,24.87,1111122 
DISL,ioos:station:DISL:MHPA:1,2017-09-03T08:30:00Z,30.6671,-87.9365,24.77,1111122 
DISL,ioos:station:DISL:MHPA:1,2017-09-03T09:00:00Z,30.6671,-87.9365,24.3,1111122 
DISL,ioos:station:DISL:MHPA:1,2017-09-03T09:30:00Z,30.6671,-87.9365,24.2,1111122 
DISL,ioos:station:DISL:MHPA:1,2017-09-03T10:00:00Z,30.6671,-87.9365,23.96,1111122 
DISL,ioos:station:DISL:MHPA:1,2017-09-03T10:30:00Z,30.6671,-87.9365,23.89,1111122 
DISL,ioos:station:DISL:MHPA:1,2017-09-03T11:00:00Z,30.6671,-87.9365,23.79,1111122 
DISL,ioos:station:DISL:MHPA:1,2017-09-03T11:30:00Z,30.6671,-87.9365,23.66,1111122 
DISL,ioos:station:DISL:MHPA:1,2017-09-03T12:00:00Z,30.6671,-87.9365,23.5,1111122 
DISL,ioos:station:DISL:MHPA:1,2017-09-03T12:30:00Z,30.6671,-87.9365,23.7,1111122 
DISL,ioos:station:DISL:MHPA:1,2017-09-03T13:00:00Z,30.6671,-87.9365,24.02,1111122 
DISL,ioos:station:DISL:MHPA:1,2017-09-03T13:30:00Z,30.6671,-87.9365,24.9,1111122 
DISL,ioos:station:DISL:MHPA:1,2017-09-03T14:00:00Z,30.6671,-87.9365,25.59,1111122 
DISL,ioos:station:DISL:MHPA:1,2017-09-03T14:30:00Z,30.6671,-87.9365,26.67,1111122 
DISL,ioos:station:DISL:MHPA:1,2017-09-03T15:00:00Z,30.6671,-87.9365,27.07,1111122 
DISL,ioos:station:DISL:MHPA:1,2017-09-03T15:30:00Z,30.6671,-87.9365,28.03,1111122 
DISL,ioos:station:DISL:MHPA:1,2017-09-03T16:00:00Z,30.6671,-87.9365,28.5,1111122 
DISL,ioos:station:DISL:MHPA:1,2017-09-03T16:30:00Z,30.6671,-87.9365,28.97,1111122 
DISL,ioos:station:DISL:MHPA:1,2017-09-03T17:00:00Z,30.6671,-87.9365,29.17,1111122 
DISL,ioos:station:DISL:MHPA:1,2017-09-03T17:30:00Z,30.6671,-87.9365,29.34,1111122 
DISL,ioos:station:DISL:MHPA:1,2017-09-03T18:00:00Z,30.6671,-87.9365,29.58,1111122 
DISL,ioos:station:DISL:MHPA:1,2017-09-03T18:30:00Z,30.6671,-87.9365,30.08,1111122 
DISL,ioos:station:DISL:MHPA:1,2017-09-03T19:00:00Z,30.6671,-87.9365,30.35,1111122 
DISL,ioos:station:DISL:MHPA:1,2017-09-03T19:30:00Z,30.6671,-87.9365,30.66,1111122 
DISL,ioos:station:DISL:MHPA:1,2017-09-03T20:00:00Z,30.6671,-87.9365,30.7,1111122 
DISL,ioos:station:DISL:MHPA:1,2017-09-03T20:30:00Z,30.6671,-87.9365,30.9,1111122 
DISL,ioos:station:DISL:MHPA:1,2017-09-03T21:00:00Z,30.6671,-87.9365,30.87,1111122 
DISL,ioos:station:DISL:MHPA:1,2017-09-03T21:30:00Z,30.6671,-87.9365,31.27,1111122 
DISL,ioos:station:DISL:MHPA:1,2017-09-03T22:00:00Z,30.6671,-87.9365,30.94,1111122 
DISL,ioos:station:DISL:MHPA:1,2017-09-03T22:30:00Z,30.6671,-87.9365,30.67,1111122 
DISL,ioos:station:DISL:MHPA:1,2017-09-03T23:00:00Z,30.6671,-87.9365,30.06,1111122 
DISL,ioos:station:DISL:MHPA:1,2017-09-03T23:30:00Z,30.6671,-87.9365,29.44,1111122 
DISL,ioos:station:DISL:MHPA:1,2017-09-04T00:00:00Z,30.6671,-87.9365,28.47,1111122 
DISL,ioos:station:DISL:MHPA:1,2017-09-04T00:30:00Z,30.6671,-87.9365,27.78,1111122 
DISL,ioos:station:DISL:MHPA:1,2017-09-04T01:00:00Z,30.6671,-87.9365,27.27,1111122 
DISL,ioos:station:DISL:MHPA:1,2017-09-04T01:30:00Z,30.6671,-87.9365,26.91,1111122 
DISL,ioos:station:DISL:MHPA:1,2017-09-04T02:00:00Z,30.6671,-87.9365,26.35,1111122 
DISL,ioos:station:DISL:MHPA:1,2017-09-04T02:30:00Z,30.6671,-87.9365,26.32,1111122 
DISL,ioos:station:DISL:MHPA:1,2017-09-04T03:00:00Z,30.6671,-87.9365,25.85,1111122 
DISL,ioos:station:DISL:MHPA:1,2017-09-04T03:30:00Z,30.6671,-87.9365,25.71,1111122 
DISL,ioos:station:DISL:MHPA:1,2017-09-04T04:00:00Z,30.6671,-87.9365,25.31,1111122 
DISL,ioos:station:DISL:MHPA:1,2017-09-04T04:30:00Z,30.6671,-87.9365,25.01,1111122 
DISL,ioos:station:DISL:MHPA:1,2017-09-04T05:00:00Z,30.6671,-87.9365,24.9,1111122 
DISL,ioos:station:DISL:MHPA:1,2017-09-04T05:30:00Z,30.6671,-87.9365,24.63,1111122 
DISL,ioos:station:DISL:MHPA:1,2017-09-04T06:00:00Z,30.6671,-87.9365,24.6,1111122 
DISL,ioos:station:DISL:MHPA:1,2017-09-04T06:30:00Z,30.6671,-87.9365,23.96,1111122 
DISL,ioos:station:DISL:MHPA:1,2017-09-04T07:00:00Z,30.6671,-87.9365,23.91,1111122 
DISL,ioos:station:DISL:MHPA:1,2017-09-04T07:30:00Z,30.6671,-87.9365,23.77,1111122 
DISL,ioos:station:DISL:MHPA:1,2017-09-04T08:00:00Z,30.6671,-87.9365,23.71,1111122 
DISL,ioos:station:DISL:MHPA:1,2017-09-04T08:30:00Z,30.6671,-87.9365,23.77,1111122 
DISL,ioos:station:DISL:MHPA:1,2017-09-04T09:00:00Z,30.6671,-87.9365,23.67,1111122 
DISL,ioos:station:DISL:MHPA:1,2017-09-04T09:30:00Z,30.6671,-87.9365,23.47,1111122 
DISL,ioos:station:DISL:MHPA:1,2017-09-04T10:00:00Z,30.6671,-87.9365,22.86,1111122 
DISL,ioos:station:DISL:MHPA:1,2017-09-04T10:30:00Z,30.6671,-87.9365,23.17,1111122 
DISL,ioos:station:DISL:MHPA:1,2017-09-04T11:00:00Z,30.6671,-87.9365,23.17,1111122 
DISL,ioos:station:DISL:MHPA:1,2017-09-04T11:30:00Z,30.6671,-87.9365,22.8,1111122 
DISL,ioos:station:DISL:MHPA:1,2017-09-04T12:00:00Z,30.6671,-87.9365,22.93,1111122 
DISL,ioos:station:DISL:MHPA:1,2017-09-04T12:30:00Z,30.6671,-87.9365,23.13,1111122 
DISL,ioos:station:DISL:MHPA:1,2017-09-04T13:00:00Z,30.6671,-87.9365,24.08,1111122 
DISL,ioos:station:DISL:MHPA:1,2017-09-04T13:30:00Z,30.6671,-87.9365,24.46,1111122 
DISL,ioos:station:DISL:MHPA:1,2017-09-04T14:00:00Z,30.6671,-87.9365,25.16,1111122 
DISL,ioos:station:DISL:MHPA:1,2017-09-04T14:30:00Z,30.6671,-87.9365,26.13,1111122 
DISL,ioos:station:DISL:MHPA:1,2017-09-04T15:00:00Z,30.6671,-87.9365,27.27,1111122 
DISL,ioos:station:DISL:MHPA:1,2017-09-04T15:30:00Z,30.6671,-87.9365,28.04,1111122 
DISL,ioos:station:DISL:MHPA:1,2017-09-04T16:00:00Z,30.6671,-87.9365,28.7,1111122 
DISL,ioos:station:DISL:MHPA:1,2017-09-04T16:30:00Z,30.6671,-87.9365,28.84,1111122 
DISL,ioos:station:DISL:MHPA:1,2017-09-04T17:00:00Z,30.6671,-87.9365,29.61,1111122 
DISL,ioos:station:DISL:MHPA:1,2017-09-04T17:30:00Z,30.6671,-87.9365,28.78,1111122 
DISL,ioos:station:DISL:MHPA:1,2017-09-04T18:00:00Z,30.6671,-87.9365,29.02,1111122 
DISL,ioos:station:DISL:MHPA:1,2017-09-04T18:30:00Z,30.6671,-87.9365,29.44,1111122 
DISL,ioos:station:DISL:MHPA:1,2017-09-04T19:00:00Z,30.6671,-87.9365,29.61,1111122 
DISL,ioos:station:DISL:MHPA:1,2017-09-04T19:30:00Z,30.6671,-87.9365,29.63,1111122 
DISL,ioos:station:DISL:MHPA:1,2017-09-04T20:00:00Z,30.6671,-87.9365,29.72,1111122 
DISL,ioos:station:DISL:MHPA:1,2017-09-04T20:30:00Z,30.6671,-87.9365,29.76,1111122 
DISL,ioos:station:DISL:MHPA:1,2017-09-04T21:00:00Z,30.6671,-87.9365,29.66,1111122 
DISL,ioos:station:DISL:MHPA:1,2017-09-04T21:30:00Z,30.6671,-87.9365,29.74,1111122 
DISL,ioos:station:DISL:MHPA:1,2017-09-04T22:00:00Z,30.6671,-87.9365,29.73,1111122 
DISL,ioos:station:DISL:MHPA:1,2017-09-04T22:30:00Z,30.6671,-87.9365,29.63,1111122 
DISL,ioos:station:DISL:MHPA:1,2017-09-04T23:00:00Z,30.6671,-87.9365,29.54,1111122 
DISL,ioos:station:DISL:MHPA:1,2017-09-04T23:30:00Z,30.6671,-87.9365,29.38,1111122 
DISL,ioos:station:DISL:MHPA:1,2017-09-05T00:00:00Z,30.6671,-87.9365,29.31,1111122 
DISL,ioos:station:DISL:MHPA:1,2017-09-05T00:30:00Z,30.6671,-87.9365,28.99,1111122 
DISL,ioos:station:DISL:MHPA:1,2017-09-05T01:00:00Z,30.6671,-87.9365,28.89,1111122 
DISL,ioos:station:DISL:MHPA:1,2017-09-05T01:30:00Z,30.6671,-87.9365,28.79,1111122 
DISL,ioos:station:DISL:MHPA:1,2017-09-05T02:00:00Z,30.6671,-87.9365,28.52,1111122 
DISL,ioos:station:DISL:MHPA:1,2017-09-05T02:30:00Z,30.6671,-87.9365,28.56,1111122 
DISL,ioos:station:DISL:MHPA:1,2017-09-05T03:00:00Z,30.6671,-87.9365,28.35,1111122 
DISL,ioos:station:DISL:MHPA:1,2017-09-05T03:30:00Z,30.6671,-87.9365,28.22,1111122 
DISL,ioos:station:DISL:MHPA:1,2017-09-05T04:00:00Z,30.6671,-87.9365,27.95,1111122 
DISL,ioos:station:DISL:MHPA:1,2017-09-05T04:30:00Z,30.6671,-87.9365,27.75,1111122 
DISL,ioos:station:DISL:MHPA:1,2017-09-05T05:00:00Z,30.6671,-87.9365,27.61,1111122 
DISL,ioos:station:DISL:MHPA:1,2017-09-05T05:30:00Z,30.6671,-87.9365,27.41,1111122 
DISL,ioos:station:DISL:MHPA:1,2017-09-05T06:00:00Z,30.6671,-87.9365,26.31,1111122 
DISL,ioos:station:DISL:MHPA:1,2017-09-05T06:30:00Z,30.6671,-87.9365,25.68,1111122 
DISL,ioos:station:DISL:MHPA:1,2017-09-05T07:00:00Z,30.6671,-87.9365,25.71,1111122 
DISL,ioos:station:DISL:MHPA:1,2017-09-05T07:30:00Z,30.6671,-87.9365,24.87,1111122 
DISL,ioos:station:DISL:MHPA:1,2017-09-05T08:00:00Z,30.6671,-87.9365,24.43,1111122 
DISL,ioos:station:DISL:MHPA:1,2017-09-05T08:30:00Z,30.6671,-87.9365,24.29,1111122 
DISL,ioos:station:DISL:MHPA:1,2017-09-05T09:00:00Z,30.6671,-87.9365,24.0,1111122 
DISL,ioos:station:DISL:MHPA:1,2017-09-05T09:30:00Z,30.6671,-87.9365,23.94,1111122 
DISL,ioos:station:DISL:MHPA:1,2017-09-05T10:00:00Z,30.6671,-87.9365,23.98,1111122 
DISL,ioos:station:DISL:MHPA:1,2017-09-05T10:30:00Z,30.6671,-87.9365,23.74,1111122 
DISL,ioos:station:DISL:MHPA:1,2017-09-05T11:00:00Z,30.6671,-87.9365,23.57,1111122 
DISL,ioos:station:DISL:MHPA:1,2017-09-05T11:30:00Z,30.6671,-87.9365,23.61,1111122 
DISL,ioos:station:DISL:MHPA:1,2017-09-05T12:00:00Z,30.6671,-87.9365,23.77,1111122 
DISL,ioos:station:DISL:MHPA:1,2017-09-05T12:30:00Z,30.6671,-87.9365,23.74,1111122 
DISL,ioos:station:DISL:MHPA:1,2017-09-05T13:00:00Z,30.6671,-87.9365,24.14,1111122 
DISL,ioos:station:DISL:MHPA:1,2017-09-05T13:30:00Z,30.6671,-87.9365,24.4,1111122 
DISL,ioos:station:DISL:MHPA:1,2017-09-05T14:00:00Z,30.6671,-87.9365,24.9,1111122 
DISL,ioos:station:DISL:MHPA:1,2017-09-05T14:30:00Z,30.6671,-87.9365,25.63,1111122 
DISL,ioos:station:DISL:MHPA:1,2017-09-05T15:00:00Z,30.6671,-87.9365,26.5,1111122 
DISL,ioos:station:DISL:MHPA:1,2017-09-05T15:30:00Z,30.6671,-87.9365,27.38,1111122 
DISL,ioos:station:DISL:MHPA:1,2017-09-05T16:00:00Z,30.6671,-87.9365,28.01,1111122 
DISL,ioos:station:DISL:MHPA:1,2017-09-05T16:30:00Z,30.6671,-87.9365,27.72,1111122 
DISL,ioos:station:DISL:MHPA:1,2017-09-05T17:00:00Z,30.6671,-87.9365,28.4,1111122 
DISL,ioos:station:DISL:MHPA:1,2017-09-05T17:30:00Z,30.6671,-87.9365,28.22,1111122 
DISL,ioos:station:DISL:MHPA:1,2017-09-05T18:00:00Z,30.6671,-87.9365,28.42,1111122 
DISL,ioos:station:DISL:MHPA:1,2017-09-05T18:30:00Z,30.6671,-87.9365,28.6,1111122 
DISL,ioos:station:DISL:MHPA:1,2017-09-05T19:00:00Z,30.6671,-87.9365,28.7,1111122 
DISL,ioos:station:DISL:MHPA:1,2017-09-05T19:30:00Z,30.6671,-87.9365,29.17,1111122 
DISL,ioos:station:DISL:MHPA:1,2017-09-05T20:00:00Z,30.6671,-87.9365,29.31,1111122 
DISL,ioos:station:DISL:MHPA:1,2017-09-05T20:30:00Z,30.6671,-87.9365,29.46,1111122 
DISL,ioos:station:DISL:MHPA:1,2017-09-05T21:00:00Z,30.6671,-87.9365,29.54,1111122 
DISL,ioos:station:DISL:MHPA:1,2017-09-05T21:30:00Z,30.6671,-87.9365,29.14,1111122 
DISL,ioos:station:DISL:MHPA:1,2017-09-05T22:00:00Z,30.6671,-87.9365,29.11,1111122 
DISL,ioos:station:DISL:MHPA:1,2017-09-05T22:30:00Z,30.6671,-87.9365,28.87,1111122 
DISL,ioos:station:DISL:MHPA:1,2017-09-05T23:00:00Z,30.6671,-87.9365,29.01,1111122 
DISL,ioos:station:DISL:MHPA:1,2017-09-05T23:30:00Z,30.6671,-87.9365,28.88,1111122 
DISL,ioos:station:DISL:MHPA:1,2017-09-06T00:00:00Z,30.6671,-87.9365,28.65,1111122 
DISL,ioos:station:DISL:MHPA:1,2017-09-06T00:30:00Z,30.6671,-87.9365,28.49,1111122 
DISL,ioos:station:DISL:MHPA:1,2017-09-06T01:00:00Z,30.6671,-87.9365,28.25,1111122 
DISL,ioos:station:DISL:MHPA:1,2017-09-06T01:30:00Z,30.6671,-87.9365,28.15,1111122 
DISL,ioos:station:DISL:MHPA:1,2017-09-06T02:00:00Z,30.6671,-87.9365,28.15,1111122 
DISL,ioos:station:DISL:MHPA:1,2017-09-06T02:30:00Z,30.6671,-87.9365,27.85,1111122 
DISL,ioos:station:DISL:MHPA:1,2017-09-06T03:00:00Z,30.6671,-87.9365,28.08,1111122 
DISL,ioos:station:DISL:MHPA:1,2017-09-06T03:30:00Z,30.6671,-87.9365,28.12,1111122 
DISL,ioos:station:DISL:MHPA:1,2017-09-06T04:00:00Z,30.6671,-87.9365,28.02,1111122 
DISL,ioos:station:DISL:MHPA:1,2017-09-06T04:30:00Z,30.6671,-87.9365,27.98,1111122 
DISL,ioos:station:DISL:MHPA:1,2017-09-06T05:00:00Z,30.6671,-87.9365,27.92,1111122 
DISL,ioos:station:DISL:MHPA:1,2017-09-06T05:30:00Z,30.6671,-87.9365,24.65,1111122 
DISL,ioos:station:DISL:MHPA:1,2017-09-06T06:00:00Z,30.6671,-87.9365,23.25,1111122 
DISL,ioos:station:DISL:MHPA:1,2017-09-06T06:30:00Z,30.6671,-87.9365,22.31,1111122 
DISL,ioos:station:DISL:MHPA:1,2017-09-06T07:00:00Z,30.6671,-87.9365,21.95,1111122 
DISL,ioos:station:DISL:MHPA:1,2017-09-06T07:30:00Z,30.6671,-87.9365,22.36,1111122 
DISL,ioos:station:DISL:MHPA:1,2017-09-06T08:00:00Z,30.6671,-87.9365,22.53,1111122 
DISL,ioos:station:DISL:MHPA:1,2017-09-06T08:30:00Z,30.6671,-87.9365,22.05,1111122 
DISL,ioos:station:DISL:MHPA:1,2017-09-06T09:00:00Z,30.6671,-87.9365,22.09,1111122 
DISL,ioos:station:DISL:MHPA:1,2017-09-06T09:30:00Z,30.6671,-87.9365,22.12,1111122 
DISL,ioos:station:DISL:MHPA:1,2017-09-06T10:00:00Z,30.6671,-87.9365,22.15,1111122 
DISL,ioos:station:DISL:MHPA:1,2017-09-06T10:30:00Z,30.6671,-87.9365,21.75,1111122 
DISL,ioos:station:DISL:MHPA:1,2017-09-06T11:00:00Z,30.6671,-87.9365,21.61,1111122 
DISL,ioos:station:DISL:MHPA:1,2017-09-06T11:30:00Z,30.6671,-87.9365,21.75,1111122 
DISL,ioos:station:DISL:MHPA:1,2017-09-06T12:00:00Z,30.6671,-87.9365,21.48,1111122 
DISL,ioos:station:DISL:MHPA:1,2017-09-06T12:30:00Z,30.6671,-87.9365,21.48,1111122 
DISL,ioos:station:DISL:MHPA:1,2017-09-06T13:00:00Z,30.6671,-87.9365,21.51,1111122 
DISL,ioos:station:DISL:MHPA:1,2017-09-06T13:30:00Z,30.6671,-87.9365,22.05,1111122 
DISL,ioos:station:DISL:MHPA:1,2017-09-06T14:00:00Z,30.6671,-87.9365,22.26,1111122 
DISL,ioos:station:DISL:MHPA:1,2017-09-06T14:30:00Z,30.6671,-87.9365,22.49,1111122 
DISL,ioos:station:DISL:MHPA:1,2017-09-06T15:00:00Z,30.6671,-87.9365,22.39,1111122 
DISL,ioos:station:DISL:MHPA:1,2017-09-06T15:30:00Z,30.6671,-87.9365,22.52,1111122 
DISL,ioos:station:DISL:MHPA:1,2017-09-06T16:00:00Z,30.6671,-87.9365,23.52,1111122 
DISL,ioos:station:DISL:MHPA:1,2017-09-06T16:30:00Z,30.6671,-87.9365,24.06,1111122 
DISL,ioos:station:DISL:MHPA:1,2017-09-06T17:00:00Z,30.6671,-87.9365,24.41,1111122 
DISL,ioos:station:DISL:MHPA:1,2017-09-06T17:30:00Z,30.6671,-87.9365,24.41,1111122 
DISL,ioos:station:DISL:MHPA:1,2017-09-06T18:00:00Z,30.6671,-87.9365,24.27,1111122 
DISL,ioos:station:DISL:MHPA:1,2017-09-06T18:30:00Z,30.6671,-87.9365,24.51,1111122 
DISL,ioos:station:DISL:MHPA:1,2017-09-06T19:00:00Z,30.6671,-87.9365,24.64,1111122 
DISL,ioos:station:DISL:MHPA:1,2017-09-06T19:30:00Z,30.6671,-87.9365,24.84,1111122 
DISL,ioos:station:DISL:MHPA:1,2017-09-06T20:00:00Z,30.6671,-87.9365,24.64,1111122 
DISL,ioos:station:DISL:MHPA:1,2017-09-06T20:30:00Z,30.6671,-87.9365,24.57,1111122 
DISL,ioos:station:DISL:MHPA:1,2017-09-06T21:00:00Z,30.6671,-87.9365,24.1,1111122 
DISL,ioos:station:DISL:MHPA:1,2017-09-06T21:30:00Z,30.6671,-87.9365,24.14,1111122 
DISL,ioos:station:DISL:MHPA:1,2017-09-06T22:00:00Z,30.6671,-87.9365,24.58,1111122 
DISL,ioos:station:DISL:MHPA:1,2017-09-06T22:30:00Z,30.6671,-87.9365,24.88,1111122 
DISL,ioos:station:DISL:MHPA:1,2017-09-06T23:00:00Z,30.6671,-87.9365,24.61,1111122 
DISL,ioos:station:DISL:MHPA:1,2017-09-06T23:30:00Z,30.6671,-87.9365,24.32,1111122 